Wind_Speed
8 8 9 9 9 9 8 8 8 8 7 8 8 8 8 7 8 8 8 8 8 8 7 7 7 7 8 8 8 8 8 9 8 9 9 9 9 9 9 10 10 10 10
8 8 9 9 9 9 8 8 8 7 8 8 8 8 8 8 8 8 8 8 9 9 7 7 8 8 8 8 8 9 9 9 9 9 9 9 9 10 10 10 11 10 10
9 8 9 9 10 9 8 8 8 8 8 8 8 9 8 8 8 8 8 9 9 9 8 8 9 8 8 9 9 9 9 9 10 10 10 9 9 10 10 11 10 10 10
9 9 9 10 10 9 9 9 8 8 8 8 8 8 8 9 8 7 8 8 8 8 9 8 9 9 9 9 9 9 10 10 9 9 10 10 9 9 9 10 10 10 11
10 10 10 10 11 10 10 9 9 8 8 8 8 8 8 8 8 8 8 8 8 8 8 8 9 10 10 10 10 10 10 11 10 10 10 10 10 10 10 10 10 11 11
11 11 10 11 11 11 11 10 9 9 9 9 8 8 8 8 8 8 9 9 8 8 7 8 9 10 10 10 10 11 11 11 11 11 11 11 11 11 11 11 11 12 12
11 11 10 11 11 11 11 11 10 9 8 9 9 8 8 8 9 9 9 9 9 9 9 9 9 11 11 11 11 11 11 11 11 11 12 12 12 12 12 12 12 13 13
11 11 11 10 11 11 11 12 11 10 9 9 9 9 9 9 10 10 11 10 10 10 10 10 10 11 11 11 12 12 12 11 11 12 12 13 12 12 12 12 12 13 13
11 11 11 11 11 11 11 11 10 10 10 10 10 10 10 10 10 10 11 11 10 10 10 11 11 11 11 12 12 12 12 11 12 12 12 12 13 13 13 13 13 13 13
12 12 12 12 12 11 11 11 11 10 10 11 10 9 10 10 10 11 11 10 10 11 11 11 11 11 12 12 12 12 12 12 12 12 13 13 13 14 14 14 13 13 13
12 12 12 12 11 11 11 11 12 11 10 10 10 10 10 10 10 10 11 11 11 11 12 12 12 12 12 12 12 12 12 12 13 13 13 14 14 14 14 14 14 13 14
11 11 11 11 11 11 11 12 11 11 11 10 10 10 10 10 10 10 11 11 11 11 12 12 12 12 12 11 11 12 13 13 14 14 14 14 14 14 14 14 14 14 14
11 10 10 10 11 11 11 11 11 11 11 11 10 10 11 11 11 10 10 10 11 11 11 12 12 12 12 11 12 12 13 13 14 14 15 14 15 15 15 15 15 15 14
11 11 11 11 10 11 11 12 11 11 10 11 11 11 11 11 11 10 11 11 11 11 11 11 12 12 12 12 12 12 13 13 14 15 15 15 16 16 16 15 15 15 15
12 12 12 12 11 11 11 12 11 11 11 11 12 12 12 12 11 11 11 11 11 11 11 12 12 12 13 13 13 14 14 14 15 15 16 16 15 15 15 16 16 16 16
13 14 13 13 12 12 11 12 12 12 12 12 12 12 12 12 12 13 13 12 12 12 12 11 12 13 14 14 14 14 15 15 15 15 15 15 15 15 15 15 16 16 16
14 14 14 13 13 13 13 13 13 13 12 12 13 13 13 13 13 13 13 12 12 12 12 12 13 14 14 15 15 14 15 15 15 15 15 15 16 16 16 16 16 17 17
16 15 15 14 14 13 14 14 14 13 13 13 14 13 13 13 12 12 12 13 13 13 13 13 13 15 15 15 15 15 15 15 15 15 16 16 16 16 17 18 18 18 18
17 16 16 16 16 15 15 15 15 14 14 14 14 14 14 13 12 13 13 13 13 13 13 13 14 15 15 15 15 15 15 15 16 16 17 17 17 17 18 19 19 20 20
18 17 18 18 18 17 17 16 16 16 16 15 15 15 14 13 13 14 14 14 14 14 14 14 14 14 14 14 15 16 16 16 16 16 17 17 18 18 18 19 19 21 21
20 20 19 19 19 19 18 18 17 17 17 17 16 16 15 15 15 15 15 15 15 15 15 15 15 14 14 15 16 16 16 16 16 16 18 18 18 18 18 19 19 20 21
21 21 20 20 20 19 19 19 19 18 18 18 17 17 17 16 16 16 16 16 16 16 16 16 16 15 15 15 16 16 17 17 17 17 18 18 18 19 19 19 19 20 21
21 21 21 21 20 21 20 19 19 19 19 18 18 18 18 17 17 17 17 17 17 17 17 17 17 16 16 16 17 17 17 17 18 18 18 19 19 20 20 20 20 20 21
21 21 22 21 21 21 21 21 20 20 19 19 20 19 19 18 18 18 18 19 19 19 19 18 18 18 18 18 18 18 19 19 19 20 20 20 20 20 20 20 21 21 22
24 23 22 22 21 21 21 22 22 21 21 21 21 20 20 19 20 20 20 20 20 20 20 20 19 19 19 19 19 19 19 20 21 21 21 21 21 20 20 20 20 21 21
25 25 24 23 22 22 22 23 23 23 22 22 22 22 21 21 21 21 21 21 21 21 21 20 20 20 20 20 20 20 20 21 21 21 21 21 21 21 21 20 21 21 22
Wind_Direction
262 260 254 248 246 247 251 258 259 260 265 272 277 272 268 267 270 270 266 270 269 266 265 267 266 271 267 261 263 259 257 261 260 258 260 264 265 268 262 261 259 261 262
264 261 257 249 246 248 253 255 258 257 264 272 274 270 270 273 272 270 266 265 263 263 264 266 267 272 270 262 261 259 261 261 260 260 261 265 267 267 268 266 263 264 265
262 264 256 248 245 247 250 254 258 259 264 267 267 264 267 271 270 273 265 260 262 262 264 268 267 267 266 265 264 261 261 259 258 258 257 259 264 266 269 269 265 265 267
270 264 262 254 248 247 252 257 257 260 263 264 265 264 268 270 271 270 263 262 267 267 266 268 266 263 263 263 266 267 266 258 256 257 257 260 263 264 269 271 268 267 269
271 269 265 256 249 248 251 254 253 254 256 261 262 262 263 264 265 268 267 267 271 269 264 265 264 261 260 261 264 267 267 261 258 259 260 262 263 265 268 270 270 271 272
268 269 264 258 250 248 247 250 253 252 252 256 260 259 259 258 261 266 268 269 269 268 265 264 262 261 261 262 263 263 265 267 261 260 261 261 263 265 267 269 271 273 272
267 260 260 256 252 248 245 247 248 250 250 254 258 262 260 256 260 261 264 266 266 266 266 266 268 263 262 262 262 263 262 264 262 260 262 264 264 267 268 269 270 271 270
259 255 255 253 247 245 244 246 246 249 252 256 262 263 262 257 257 260 264 265 267 270 272 271 271 268 261 259 261 262 262 260 261 263 264 266 266 268 269 272 274 275 272
257 258 255 247 240 241 242 243 247 251 254 257 258 259 261 258 258 263 265 266 268 272 274 277 273 268 268 264 263 262 259 258 261 262 265 265 267 269 273 274 276 276 274
254 252 253 246 241 242 244 246 248 249 252 254 257 257 259 259 264 268 269 270 272 273 272 275 273 268 266 265 264 260 259 262 262 263 264 264 267 271 274 276 276 277 278
253 247 246 243 242 245 247 248 249 250 252 253 256 258 257 260 268 273 273 271 270 270 270 272 272 271 267 265 263 260 261 264 266 268 266 267 270 273 275 275 276 277 280
255 246 241 240 242 247 248 249 251 251 250 252 256 258 258 261 265 271 272 270 268 268 270 271 273 273 270 267 265 265 265 267 269 270 268 269 272 272 274 275 277 278 280
251 244 241 242 243 246 246 247 250 252 251 252 255 259 259 262 265 269 273 275 274 273 273 273 273 273 269 267 269 269 269 269 270 270 269 270 271 271 274 275 276 277 278
248 245 244 244 247 248 245 245 249 251 251 255 259 261 262 264 268 273 277 279 278 275 275 273 274 275 271 269 270 270 271 270 270 269 268 269 270 271 273 275 276 275 277
245 245 243 244 247 248 246 246 248 252 256 258 261 263 263 265 268 270 275 276 280 280 277 272 273 274 273 273 271 272 271 272 272 272 271 271 272 272 275 276 276 276 276
244 245 244 246 247 248 250 251 252 256 258 258 259 262 263 264 266 269 272 276 280 281 279 274 274 276 277 276 278 276 274 273 274 274 273 272 273 274 276 276 276 276 273
245 245 245 246 249 251 252 254 254 255 256 259 260 263 265 265 265 267 270 274 279 280 280 277 277 280 280 280 279 277 276 277 277 275 273 272 274 276 277 278 278 275 274
247 244 243 244 250 253 253 253 255 254 255 259 261 265 266 265 265 266 267 270 275 279 279 276 276 278 279 278 274 274 274 276 277 277 275 274 276 278 278 277 278 277 273
249 245 245 247 250 252 253 252 252 256 258 260 262 265 267 267 265 266 269 273 275 278 280 278 278 275 275 276 273 273 275 277 276 274 274 275 275 277 278 278 278 276 276
250 251 249 248 250 251 251 251 252 255 257 259 261 263 266 268 266 268 271 272 274 277 280 280 280 276 274 273 273 273 274 275 277 274 276 275 277 278 281 281 280 279 278
253 253 252 249 248 251 252 252 251 252 255 258 259 261 262 265 265 267 269 271 274 277 279 280 280 276 274 274 275 273 274 274 275 274 275 276 279 280 282 283 283 282 282
254 253 253 251 249 250 252 252 251 250 252 255 258 260 261 262 263 265 268 272 274 276 278 280 280 277 275 277 277 276 276 275 276 277 278 278 279 279 281 283 285 284 284
254 251 251 250 250 250 250 250 249 249 250 252 257 259 260 261 262 265 268 271 273 275 278 279 278 277 276 278 279 278 276 276 278 279 279 280 280 281 281 282 284 283 285
256 254 252 250 250 250 249 248 250 250 251 253 256 258 259 261 263 265 267 269 271 273 276 277 277 278 278 278 279 279 277 276 277 279 281 281 281 279 280 282 282 284 286
257 258 254 251 250 250 250 249 250 251 252 254 256 257 259 262 264 265 267 268 269 271 273 275 275 278 279 278 278 279 279 279 278 278 280 282 281 277 278 281 281 281 283
257 255 252 252 251 252 252 251 251 252 253 254 256 258 260 261 264 267 267 268 268 269 271 273 274 276 278 279 279 279 280 280 280 279 279 281 281 280 278 278 279 280 282
Height
5872 5872 5872 5872 5872 5872 5873 5873 5873 5873 5873 5873 5872 5872 5872 5872 5872 5872 5871 5871 5870 5870 5870 5870 5870 5869 5869 5869 5869 5869 5869 5869 5870 5871 5871 5871 5872 5872 5872 5872 5872 5872 5872
5870 5870 5870 5870 5870 5870 5870 5871 5871 5871 5871 5871 5871 5870 5870 5870 5870 5870 5869 5869 5869 5869 5869 5868 5868 5868 5868 5868 5868 5868 5868 5868 5868 5869 5869 5869 5869 5869 5870 5870 5870 5870 5869
5867 5867 5867 5868 5868 5868 5868 5869 5869 5869 5869 5869 5869 5869 5868 5868 5868 5868 5868 5867 5867 5866 5867 5866 5866 5866 5866 5866 5866 5866 5866 5866 5866 5866 5867 5867 5867 5867 5867 5867 5867 5867 5867
5865 5865 5865 5865 5866 5866 5866 5867 5867 5867 5867 5867 5867 5867 5866 5866 5866 5866 5866 5866 5865 5865 5865 5864 5864 5864 5864 5864 5864 5864 5864 5864 5864 5864 5864 5864 5864 5864 5864 5865 5865 5865 5865
5862 5862 5862 5863 5863 5863 5864 5864 5864 5865 5865 5865 5865 5865 5865 5864 5864 5864 5864 5864 5863 5863 5862 5862 5862 5862 5862 5862 5861 5861 5861 5861 5861 5861 5862 5862 5862 5862 5862 5862 5862 5862 5862
5859 5859 5859 5860 5860 5861 5861 5862 5862 5863 5863 5863 5863 5863 5862 5863 5862 5862 5862 5861 5861 5860 5860 5860 5860 5859 5859 5859 5859 5859 5859 5859 5859 5859 5859 5859 5859 5859 5859 5859 5859 5859 5859
5855 5856 5856 5857 5857 5858 5859 5859 5860 5860 5860 5861 5861 5861 5860 5860 5860 5860 5860 5859 5858 5858 5858 5857 5857 5856 5856 5856 5856 5856 5856 5856 5856 5856 5856 5856 5856 5856 5856 5856 5856 5855 5855
5852 5852 5853 5854 5854 5855 5856 5856 5857 5858 5858 5858 5858 5858 5858 5859 5858 5858 5857 5857 5856 5855 5855 5854 5853 5853 5853 5853 5853 5852 5852 5853 5853 5853 5853 5853 5853 5853 5853 5853 5852 5852 5851
5848 5849 5850 5851 5851 5852 5852 5853 5854 5855 5855 5855 5856 5856 5856 5856 5855 5855 5854 5854 5853 5852 5852 5851 5851 5850 5850 5850 5849 5849 5849 5849 5849 5849 5850 5850 5850 5850 5850 5849 5849 5848 5848
5845 5845 5846 5847 5848 5848 5849 5850 5851 5851 5852 5852 5852 5853 5853 5852 5852 5852 5852 5851 5850 5850 5849 5849 5848 5847 5847 5846 5846 5846 5846 5846 5846 5846 5846 5846 5846 5846 5846 5846 5845 5845 5844
5841 5842 5843 5844 5844 5845 5846 5847 5848 5848 5849 5849 5849 5849 5849 5849 5849 5849 5849 5848 5848 5847 5846 5845 5845 5844 5844 5843 5843 5843 5843 5843 5843 5843 5843 5843 5843 5843 5843 5842 5842 5841 5840
5838 5839 5840 5841 5842 5842 5843 5844 5844 5845 5845 5846 5846 5846 5846 5846 5846 5846 5845 5845 5844 5844 5843 5842 5842 5841 5840 5840 5839 5839 5839 5839 5839 5839 5839 5839 5839 5839 5839 5838 5838 5837 5836
5834 5835 5836 5837 5838 5839 5840 5840 5841 5842 5842 5843 5843 5843 5843 5843 5843 5843 5842 5842 5841 5841 5840 5839 5839 5838 5837 5837 5836 5836 5836 5836 5836 5836 5835 5835 5835 5835 5835 5834 5833 5833 5832
5831 5832 5833 5834 5835 5836 5836 5837 5838 5838 5839 5839 5840 5840 5840 5840 5839 5839 5839 5838 5838 5837 5837 5836 5835 5835 5834 5833 5833 5832 5832 5832 5832 5832 5831 5831 5831 5831 5830 5830 5829 5828 5828
5828 5829 5830 5831 5831 5832 5833 5834 5834 5835 5835 5836 5836 5836 5836 5836 5836 5835 5835 5835 5835 5834 5833 5832 5832 5831 5830 5830 5829 5828 5828 5828 5828 5827 5827 5827 5827 5826 5826 5825 5824 5824 5823
5825 5826 5827 5827 5828 5828 5829 5830 5831 5831 5832 5832 5832 5832 5833 5832 5832 5832 5831 5831 5831 5830 5829 5828 5828 5827 5826 5826 5825 5824 5824 5823 5823 5823 5822 5822 5822 5821 5821 5820 5820 5819 5818
5821 5822 5823 5824 5824 5825 5826 5827 5827 5828 5828 5828 5828 5829 5829 5829 5828 5828 5828 5827 5827 5826 5826 5825 5824 5823 5822 5821 5821 5820 5819 5819 5818 5818 5818 5817 5817 5817 5816 5816 5815 5814 5813
5817 5818 5818 5819 5820 5821 5822 5822 5823 5824 5824 5824 5825 5825 5825 5824 5824 5824 5824 5824 5823 5823 5822 5821 5820 5819 5818 5817 5816 5816 5815 5815 5814 5813 5813 5813 5813 5812 5811 5811 5810 5809 5808
5812 5813 5814 5815 5816 5817 5818 5818 5819 5819 5820 5820 5820 5821 5820 5821 5821 5820 5820 5820 5819 5819 5818 5817 5816 5815 5814 5813 5812 5812 5811 5810 5810 5809 5809 5808 5808 5807 5806 5805 5804 5803 5802
5807 5808 5809 5810 5811 5812 5813 5814 5814 5815 5815 5816 5816 5816 5816 5816 5817 5816 5816 5816 5815 5815 5814 5813 5812 5811 5810 5809 5808 5807 5807 5806 5806 5805 5804 5803 5803 5802 5801 5800 5799 5798 5797
5802 5803 5803 5804 5805 5806 5807 5808 5809 5810 5810 5811 5811 5811 5812 5812 5812 5812 5812 5811 5811 5810 5810 5809 5808 5806 5805 5804 5804 5803 5802 5802 5801 5800 5799 5798 5797 5796 5795 5794 5793 5791 5790
5796 5797 5797 5798 5800 5801 5802 5803 5804 5805 5805 5806 5806 5807 5807 5807 5807 5807 5807 5807 5806 5806 5805 5804 5803 5802 5801 5800 5799 5798 5798 5797 5797 5796 5794 5793 5792 5791 5790 5788 5787 5785 5784
5789 5790 5791 5792 5793 5795 5796 5797 5798 5799 5800 5801 5801 5802 5802 5802 5803 5803 5802 5802 5801 5801 5800 5799 5798 5797 5796 5795 5794 5794 5792 5792 5791 5790 5789 5788 5786 5785 5784 5782 5781 5779 5778
5783 5784 5785 5786 5787 5788 5790 5791 5792 5793 5795 5795 5796 5796 5797 5797 5797 5797 5797 5796 5796 5795 5795 5794 5793 5792 5791 5790 5789 5788 5787 5786 5786 5784 5783 5782 5781 5779 5778 5776 5775 5773 5772
5776 5777 5778 5779 5781 5782 5783 5784 5786 5787 5788 5789 5790 5791 5791 5792 5791 5791 5791 5791 5790 5789 5789 5788 5787 5787 5786 5784 5783 5783 5782 5780 5780 5779 5777 5776 5775 5774 5772 5771 5769 5767 5766
5769 5770 5771 5772 5774 5775 5777 5778 5779 5781 5782 5783 5784 5785 5785 5785 5785 5785 5785 5784 5784 5783 5782 5782 5781 5781 5780 5779 5777 5776 5775 5774 5773 5772 5771 5770 5769 5767 5766 5765 5763 5761 5760